DMSP 5D-2 F13 DEB, 40681

Orbit data source: Space-Track

DMSP 5D-2 F13 DEB, 40681 is space debris in SSO originally from a launch on Fri, 24 Mar 1995 UTC launched from the Air Force Western Test Range (AFWTR). Debris objects in space refer to the collection of defunct objects orbiting the Earth. Examples of debris include non-operational satellites, rocket bodies, and fragments generated from explosions, collisions, or faulty payload assembly.

Loading next visibility...
Identifier
40681, 1995-015FV
Orbit
SSO
Country
Flag of USUS
Related business
Manufacturer
Unknown
Mission
Spacecraft
Bus & Motor
Unknown
Mass
Unknown
Launch date (UTC)
1995-03-24 (31 years ago)
Launch vehicle
Unknown
Launch site
Air Force Western Test Range (AFWTR)
Object type
Payload
Rocket body
Debris
Shape & HBR
Unknown shape, 0.1 m
Radar Cross Section
Small (<0.1 m²)

Expand to show TLE details & history
Last TLE update: 17 hours ago

TLE from 17 hours ago
0 DMSP 5D-2 F13 DEB
1 40681U 95015FV  26037.05031395  .00006349  00000-0  21783-2 0  9998
2 40681  98.7093  71.6920 0005731 107.7343 252.4469 14.36465785561882
Epoch: 2026-02-06T01:12Z
TLE epoch observation values (Epoch: 2026-02-06T01:12:27.125Z)
Latitude
0.00004°
Longitude
-82.61478°
Altitude
774.374 km
Speed
7.466 km/s
True Right ascension
04h 46m 46s
True Declination
0° 00' 00"
Sunlit
Object was in daylight at epoch
Visualization orbit readout
Latitude
Unknown
Longitude
Unknown
Altitude
Unknown
Speed
Unknown
Apparent Right ascension
Unknown
Apparent Declination
Unknown
Sunlit
N/A
Visualization observer readout
Local Sidereal Time
20:39:00
Azimuth
Unknown
Elevation
Unknown
Doppler factor
Unknown
Orbital elements
Apogee altitude
771.431 km
Perigee altitude
763.241 km
Semi-major axis
7,145.473 km
Eccentricity
0.00057
Inclination
98.7093°
RAAN
71.692°
Arg. of periapsis
107.7343°
True anomaly
252.3843°
Mean anomaly
252.4469°
Eccentric anomaly
252.4156°
Mean motion
3.59333 °/min
Orbital period
100.19 mins
BSTAR
0.0021783
Loading maneuver chart data...
Computing Atmospheric mass density...

Documentation

Showing up to 5 results
|